Location: Bílinka
(49.3579°N, 14.3767°E)
Time: 00:34:02
(UTC+00:00)

Cosmos 1140 Rocket - Pass Details

Date: 28 January 2023
Orbit: 743 x 766 km, 74.1° (Epoch: 30 March)

Event Time Altitude Azimuth Distance (km) Brightness Sun altitude
Rises 18:04:44 0° 210° (SSW) 3,204 7.2 -21.6°
Reaches altitude 10° 18:07:07 10° 213° (SSW) 2,279 6.4 -22.0°
Maximum altitude 18:12:15 67° 296° (WNW) 820 3.7 -22.8°
Enters shadow 18:15:52 20° 15° (NNE) 1,705 5.1 -23.4°
